Home   Weather   Helsingborg   Past weeks
Flag for Sweden

Past Weather in Helsingborg, Sweden — Yesterday and Last 2 Weeks

Now
82 °F

Warm.


Feels Like: 83 °F
Forecast: 78 / 60 °F
Wind: 12 mph from Southeast

Location: Ljungbyhed

Current Time: Jun 25, 2019 at 6:02:52 pm

Latest Report: Jun 25, 2019 at 5:20 pm


Visibility: N/A

Pressure: 30.18 "Hg

Humidity: 48%

Dew Point: 61 °F

Location of HelsingborgLocation

Past Weather in Helsingborg — Graph

°F

Helsingborg Temperature Yesterday

Maximum temperature yesterday: 77 °F (at 2:20 pm)
Minimum temperature yesterday: 45 °F (at 3:20 am)
Average temperature yesterday: 63 °F

High & Low Weather Summary for the Past Weeks

 TemperatureHumidityPressure
High82 °F (Jun 25, 2:20 pm)100% (Jun 12, 4:20 am)30.33 "Hg (Jun 12, 4:20 am)
Low39 °F (Jun 23, 4:50 am)27% (Jun 24, 6:20 pm)29.71 "Hg (Jun 20, 2:50 am)
Average64 °F76%30.04 "Hg
* Reported Jun 10 4:20 pm — Jun 25 4:50 pm, Helsingborg. Weather by CustomWeather, © 2019

Note: Actual official high and low records may vary slightly from our data, if they occured in-between our weather recording intervals... More about our weather records

Advertising

Helsingborg Weather History for the Previous 24 Hours

Scroll right to see more
 ConditionsComfort  
Time TempWeatherWind HumidityBarometerVisibility
4:50 pm
Tue, Jun 25
82 °FPassing clouds.13 mph45%30.18 "HgN/A
4:20 pm82 °FPassing clouds.13 mph48%30.18 "HgN/A
3:50 pm82 °FSunny.14 mph45%30.21 "Hg10 mi
3:20 pm82 °FSunny.12 mph45%30.21 "Hg10 mi
2:50 pm81 °FSunny.12 mph51%30.21 "Hg10 mi
2:20 pm82 °FSunny.12 mph45%30.21 "Hg10 mi
1:50 pm81 °FSunny.8 mph58%30.21 "Hg10 mi
1:20 pm81 °FSunny.9 mph54%30.21 "Hg10 mi
12:50 pm81 °FPassing clouds.9 mph51%30.24 "HgN/A
12:20 pm79 °FPassing clouds.9 mph58%30.24 "HgN/A
11:50 am79 °FSunny.9 mph58%30.24 "Hg10 mi
11:20 am77 °FPassing clouds.8 mph61%30.24 "HgN/A
10:50 am75 °FSunny.9 mph69%30.24 "Hg10 mi
9:50 am72 °FSunny.9 mph69%30.27 "Hg10 mi
9:20 am68 °FSunny.10 mph78%30.27 "Hg10 mi
8:50 am66 °FSunny.12 mph83%30.27 "Hg10 mi
8:20 am66 °FSunny.8 mph83%30.27 "Hg10 mi
7:50 am64 °FMild.9 mph88%30.27 "HgN/A
7:20 am63 °FPassing clouds.5 mph94%30.27 "HgN/A
6:50 am59 °FPartly sunny.6 mph100%30.27 "HgN/A
6:20 am57 °FPassing clouds.3 mph100%30.30 "HgN/A
5:50 am55 °FCool.3 mph100%30.30 "HgN/A
5:20 am54 °FCool.3 mph100%30.30 "HgN/A
4:50 am50 °FCool.3 mph100%30.30 "HgN/A
4:20 am52 °FFog.3 mph100%30.30 "HgN/A
3:50 am52 °FCool.5 mph100%30.30 "HgN/A
3:20 am52 °FCool.3 mph100%30.33 "HgN/A
2:50 am50 °FCool.3 mph100%30.33 "HgN/A
2:20 am48 °FCool.5 mph100%30.33 "HgN/A
1:50 am48 °FCool.3 mph100%30.33 "HgN/A
1:20 am50 °FCool.6 mph100%30.33 "HgN/A
12:50 am54 °FCool.3 mph94%30.33 "HgN/A
12:20 am55 °FCool.6 mph94%30.33 "HgN/A
11:50 pm
Mon, Jun 24
55 °FCool.6 mph88%30.33 "HgN/A
11:20 pm57 °FCool.6 mph82%30.33 "HgN/A
10:50 pm57 °FCool.7 mph77%30.33 "HgN/A
10:20 pm59 °FCool.7 mph72%30.33 "HgN/A
9:50 pm63 °FMild.7 mph56%30.33 "HgN/A
9:20 pm64 °FMild.8 mph49%30.33 "HgN/A
8:50 pm66 °FMild.10 mph46%30.33 "HgN/A
8:20 pm68 °FMild.12 mph43%30.33 "HgN/A
7:50 pm70 °FMild.12 mph38%30.33 "HgN/A
7:20 pm72 °FMild.9 mph36%30.33 "HgN/A
6:50 pm73 °FMild.13 mph29%30.33 "HgN/A
6:20 pm73 °FMild.14 mph27%30.33 "HgN/A
Weather by CustomWeather, © 2019

See weather overview